Location: Allos
(44.2333°N, 6.6333°E)
Time: 22:23:50
(UTC+00:00)

Meteor 2-12 Rocket - Visible Passes

Search period start: 12 April 2021 00:00
Search period end: 22 April 2021 00:00
Orbit: 936 x 956 km, 82.5° (Epoch: 12 April)

Date Brightness Start Highest point End Pass type
(mag) Time Alt. Az. Time Alt. Az. Time Alt. Az.
12 Apr 4.9 00:49:31 10° N 00:54:21 56° N 00:54:21 56° N visible
12 Apr 6.2 02:36:04 10° NW 02:38:23 15° WNW 02:38:23 15° WNW visible
12 Apr 6.4 23:22:37 10° NNE 23:26:48 19° ENE 23:26:48 19° ENE visible
13 Apr 5.0 01:06:15 10° NNW 01:10:51 51° NNW 01:10:51 51° NNW visible
13 Apr 5.9 23:38:41 10° N 23:43:18 28° ENE 23:43:18 28° ENE visible
14 Apr 5.3 01:23:08 10° NNW 01:27:20 38° NW 01:27:20 38° NW visible
14 Apr 5.5 23:55:02 10° N 23:59:49 40° NE 23:59:49 40° NE visible
15 Apr 5.7 01:40:13 10° NNW 01:43:52 27° WNW 01:43:52 27° WNW visible
15 Apr 6.8 22:30:34 10° NE 22:31:33 10° ENE 22:32:18 10° ENE visible
16 Apr 5.1 00:11:34 10° N 00:16:21 52° NNE 00:16:21 52° NNE visible
16 Apr 6.1 01:57:38 10° NW 02:00:23 18° WNW 02:00:23 18° WNW visible
16 Apr 6.5 22:45:01 10° NNE 22:48:44 16° ENE 22:48:51 16° ENE visible
17 Apr 5.0 00:28:14 10° N 00:32:53 54° NNW 00:32:53 54° NNW visible
17 Apr 6.5 02:15:49 10° NW 02:16:56 12° WNW 02:16:56 12° WNW visible
17 Apr 6.0 23:00:55 10° NNE 23:05:24 24° ENE 23:05:24 24° ENE visible
18 Apr 5.2 00:45:03 10° NNW 00:49:26 43° NW 00:49:26 43° NW visible
18 Apr 5.6 23:17:10 10° N 23:21:57 35° NE 23:21:57 35° NE visible
19 Apr 5.6 01:02:03 10° NNW 01:06:00 31° WNW 01:06:00 31° WNW visible
19 Apr 5.1 23:33:37 10° N 23:38:32 48° NE 23:38:32 48° NE visible
20 Apr 6.0 01:19:18 10° NW 01:22:34 22° WNW 01:22:34 22° WNW visible
20 Apr 6.5 22:07:35 10° NNE 22:10:34 14° ENE 22:11:04 14° ENE visible
20 Apr 4.9 23:50:14 10° N 23:55:06 58° N 23:55:06 58° N visible
21 Apr 6.4 01:37:03 10° NW 01:39:09 14° WNW 01:39:09 14° WNW visible
21 Apr 6.1 22:23:11 10° NNE 22:27:39 21° ENE 22:27:39 21° ENE visible
